Location: Gourdan-Polignan
(43.0709°N, 0.5748°E)
Time: 10:23:21
(UTC+00:00)

Cosmos 2237 - Pass Details

Date: 15 May 2026
Orbit: 845 x 858 km, 70.8° (Epoch: 6 June)

Event Time Altitude Azimuth Distance (km) Brightness Sun altitude
Rises 20:38:51 0° 332° (NNW) 3,440 8.8 -13.4°
Reaches altitude 10° 20:41:19 10° 331° (NNW) 2,500 7.9 -13.8°
Maximum altitude 20:47:02 71° 249° (WSW) 909 4.4 -14.5°
Enters shadow 20:51:30 17° 168° (SSE) 2,031 5.7 -15.1°
